Back to catalog

CZ-2D DEB

AlivePO
NORAD 38323·DEBRIS·🇨🇳 China

Launched Nov 5, 2008 from Jiuquan Satellite Launch Center

Loading…

Next Passes (next 24 hours)

TLE

FreshSource: Space-Track

Epoch: Sep 14, 2026, 14:39 UTC

1 38323U 08056J   26257.61043031  .00000658  00000-0  43283-3 0  9990
2 38323  98.5356 181.6420 0194973 131.2801 351.6224 13.96062402903512

Track CZ-2D DEB in real time with AllMySat

Download on the App Store